FRS28 EDBR-EDAV

Flight info

Callsign FRS28
Flight time 0h 40m
Altitude 1500
Route DIRECT
Aircraft COL4/L-V/N

Departure

Time 2026-05-07 13:11
Airport Rothenburg/Görlitz Airfield (EDBR)

Arrival

Time 2026-05-07 13:52
Airport Eberswalde-Finow Airfield (EDAV)
Time Latitude Longitude Altitude Speed Heading
2026-05-07 13:04 51.35881 14.95454 523 ft 0 kts 219°
2026-05-07 13:06 51.35881 14.95445 523 ft 3 kts 328°
2026-05-07 13:07 51.35890 14.95473 523 ft 5 kts 180°
2026-05-07 13:07 51.35901 14.95478 523 ft 9 kts 53°
2026-05-07 13:07 51.35941 14.95583 522 ft 9 kts 78°
2026-05-07 13:07 51.35898 14.95660 523 ft 9 kts 143°
2026-05-07 13:08 51.35863 14.95696 523 ft 4 kts 158°
2026-05-07 13:08 51.35816 14.95733 523 ft 10 kts 151°
2026-05-07 13:08 51.35742 14.95729 524 ft 14 kts 226°
2026-05-07 13:08 51.35730 14.95568 524 ft 15 kts 264°
2026-05-07 13:09 51.35728 14.95418 524 ft 13 kts 271°
2026-05-07 13:09 51.35730 14.95271 524 ft 14 kts 264°
2026-05-07 13:09 51.35810 14.95159 523 ft 32 kts 356°
2026-05-07 13:09 51.36229 14.95097 568 ft 81 kts 353°
2026-05-07 13:10 51.36820 14.94902 764 ft 92 kts 344°
2026-05-07 13:10 51.37444 14.94568 990 ft 104 kts 342°
2026-05-07 13:10 51.38257 14.94112 1009 ft 140 kts 336°
2026-05-07 13:10 51.39097 14.93133 1007 ft 154 kts 334°
2026-05-07 13:11 51.40130 14.93080 1067 ft 155 kts 24°
2026-05-07 13:11 51.41007 14.94037 1234 ft 152 kts 25°
2026-05-07 13:11 51.42054 14.94239 1293 ft 155 kts
2026-05-07 13:11 51.43145 14.94432 1298 ft 158 kts
2026-05-07 13:12 51.44230 14.94660 1306 ft 158 kts
2026-05-07 13:12 51.45329 14.94459 1301 ft 160 kts 356°
2026-05-07 13:12 51.46445 14.94399 1306 ft 161 kts
2026-05-07 13:12 51.47559 14.94359 1308 ft 162 kts 360°
2026-05-07 13:13 51.48679 14.94264 1307 ft 161 kts 355°
2026-05-07 13:13 51.49798 14.94033 1305 ft 161 kts 354°
2026-05-07 13:13 51.50920 14.93806 1307 ft 162 kts 354°
2026-05-07 13:13 51.52028 14.93582 1307 ft 158 kts 354°
2026-05-07 13:14 51.53109 14.93367 1300 ft 154 kts 354°
2026-05-07 13:14 51.54155 14.93152 1303 ft 152 kts 354°
2026-05-07 13:14 51.55190 14.92819 1303 ft 151 kts 342°
2026-05-07 13:14 51.55803 14.92295 1290 ft 153 kts 320°
2026-05-07 13:15 51.56517 14.90334 1296 ft 155 kts 294°
2026-05-07 13:15 51.56770 14.89249 1302 ft 156 kts 292°
2026-05-07 13:15 51.57149 14.87610 1302 ft 156 kts 294°
2026-05-07 13:15 51.57560 14.85987 1306 ft 156 kts 302°
2026-05-07 13:16 51.58179 14.84568 1307 ft 157 kts 308°
2026-05-07 13:16 51.58817 14.83120 1307 ft 157 kts 308°
2026-05-07 13:16 51.59458 14.81686 1311 ft 158 kts 309°
2026-05-07 13:16 51.60081 14.80259 1305 ft 157 kts 308°
2026-05-07 13:17 51.60711 14.78831 1318 ft 159 kts 308°
2026-05-07 13:17 51.61368 14.77351 1313 ft 163 kts 308°
2026-05-07 13:17 51.62005 14.75901 1468 ft 156 kts 308°
2026-05-07 13:17 51.62629 14.74487 1505 ft 155 kts 308°
2026-05-07 13:18 51.63261 14.73055 1505 ft 157 kts 308°
2026-05-07 13:18 51.63880 14.71638 1503 ft 157 kts 308°
2026-05-07 13:18 51.64510 14.70206 1507 ft 155 kts 308°
2026-05-07 13:18 51.65136 14.68786 1510 ft 155 kts 308°
2026-05-07 13:19 51.65758 14.67370 1502 ft 156 kts 308°
2026-05-07 13:19 51.66384 14.65942 1504 ft 155 kts 308°
2026-05-07 13:19 51.67006 14.64514 1511 ft 155 kts 308°
2026-05-07 13:19 51.67629 14.63076 1508 ft 157 kts 308°
2026-05-07 13:20 51.68251 14.61636 1520 ft 159 kts 308°
2026-05-07 13:20 51.68885 14.60171 1514 ft 159 kts 308°
2026-05-07 13:20 51.69516 14.58716 1514 ft 159 kts 307°
2026-05-07 13:20 51.70152 14.57235 1517 ft 159 kts 307°
2026-05-07 13:21 51.70730 14.55886 1516 ft 160 kts 307°
2026-05-07 13:21 51.71355 14.54394 1519 ft 161 kts 307°
2026-05-07 13:21 51.71977 14.52888 1515 ft 160 kts 307°
2026-05-07 13:21 51.72595 14.51391 1517 ft 160 kts 307°
2026-05-07 13:22 51.73203 14.49920 1513 ft 159 kts 307°
2026-05-07 13:22 51.73826 14.48439 1516 ft 159 kts 307°
2026-05-07 13:22 51.74443 14.46955 1518 ft 158 kts 307°
2026-05-07 13:22 51.75254 14.45869 1511 ft 153 kts 345°
2026-05-07 13:23 51.76289 14.45872 1513 ft 149 kts
2026-05-07 13:23 51.77313 14.45678 1513 ft 151 kts 342°
2026-05-07 13:23 51.78296 14.45062 1517 ft 151 kts 343°
2026-05-07 13:23 51.79283 14.44489 1519 ft 152 kts 343°
2026-05-07 13:24 51.80283 14.43894 1520 ft 152 kts 343°
2026-05-07 13:24 51.81276 14.43308 1517 ft 153 kts 343°
2026-05-07 13:24 51.82288 14.42722 1521 ft 154 kts 343°
2026-05-07 13:24 51.83281 14.42141 1517 ft 153 kts 343°
2026-05-07 13:25 51.84290 14.41560 1519 ft 153 kts 343°
2026-05-07 13:25 51.85301 14.40973 1522 ft 154 kts 343°
2026-05-07 13:25 51.86300 14.40394 1520 ft 155 kts 344°
2026-05-07 13:25 51.87319 14.39803 1523 ft 155 kts 343°
2026-05-07 13:26 51.88326 14.39208 1527 ft 155 kts 343°
2026-05-07 13:26 51.89342 14.38621 1522 ft 152 kts 343°
2026-05-07 13:26 51.90332 14.38048 1524 ft 153 kts 343°
2026-05-07 13:26 51.91339 14.37457 1526 ft 153 kts 343°
2026-05-07 13:27 51.92346 14.36874 1534 ft 157 kts 343°
2026-05-07 13:27 51.93408 14.36272 1534 ft 162 kts 343°
2026-05-07 13:27 51.94476 14.35663 1542 ft 166 kts 343°
2026-05-07 13:27 51.95582 14.35042 1540 ft 168 kts 343°
2026-05-07 13:28 51.96682 14.34403 1536 ft 167 kts 343°
2026-05-07 13:28 51.97770 14.33775 1528 ft 166 kts 343°
2026-05-07 13:28 51.98866 14.33144 1537 ft 166 kts 343°
2026-05-07 13:28 51.99942 14.32526 1523 ft 163 kts 343°
2026-05-07 13:29 52.00991 14.31903 1528 ft 158 kts 342°
2026-05-07 13:29 52.02008 14.31302 1521 ft 156 kts 343°
2026-05-07 13:29 52.03027 14.30704 1527 ft 154 kts 343°
2026-05-07 13:29 52.04022 14.30121 1526 ft 152 kts 343°
2026-05-07 13:30 52.05014 14.29530 1529 ft 150 kts 342°
2026-05-07 13:30 52.06002 14.28940 1527 ft 151 kts 343°
2026-05-07 13:30 52.06987 14.28358 1536 ft 152 kts 343°
2026-05-07 13:30 52.07993 14.27766 1529 ft 153 kts 343°
2026-05-07 13:31 52.08983 14.27177 1534 ft 152 kts 343°
2026-05-07 13:31 52.09982 14.26589 1533 ft 151 kts 343°
2026-05-07 13:31 52.10964 14.26007 1535 ft 151 kts 343°
2026-05-07 13:31 52.11954 14.25417 1533 ft 151 kts 343°
2026-05-07 13:32 52.12932 14.24839 1534 ft 150 kts 343°
2026-05-07 13:32 52.13921 14.24253 1536 ft 150 kts 343°
2026-05-07 13:32 52.14895 14.23673 1530 ft 151 kts 343°
2026-05-07 13:32 52.15889 14.23078 1534 ft 152 kts 343°
2026-05-07 13:33 52.16879 14.22494 1539 ft 153 kts 343°
2026-05-07 13:33 52.17879 14.21896 1537 ft 153 kts 343°
2026-05-07 13:33 52.18891 14.21290 1541 ft 155 kts 343°
2026-05-07 13:33 52.19896 14.20697 1546 ft 155 kts 343°
2026-05-07 13:34 52.20903 14.20093 1542 ft 155 kts 343°
2026-05-07 13:34 52.22914 14.18884 1552 ft 154 kts 343°
2026-05-07 13:34 52.23925 14.18282 1549 ft 155 kts 343°
2026-05-07 13:35 52.24948 14.17690 1541 ft 156 kts 343°
2026-05-07 13:35 52.25965 14.17096 1539 ft 154 kts 343°
2026-05-07 13:35 52.26959 14.16499 1535 ft 153 kts 343°
2026-05-07 13:35 52.27962 14.15892 1538 ft 152 kts 343°
2026-05-07 13:36 52.28947 14.15294 1538 ft 152 kts 343°
2026-05-07 13:36 52.29947 14.14683 1542 ft 152 kts 343°
2026-05-07 13:36 52.30934 14.14088 1541 ft 152 kts 343°
2026-05-07 13:36 52.31924 14.13491 1539 ft 152 kts 343°
2026-05-07 13:37 52.32917 14.12895 1542 ft 151 kts 343°
2026-05-07 13:37 52.33896 14.12334 1531 ft 149 kts 348°
2026-05-07 13:37 52.34917 14.12119 1536 ft 148 kts 358°
2026-05-07 13:37 52.35948 14.11943 1547 ft 149 kts 356°
2026-05-07 13:38 52.36973 14.11772 1547 ft 150 kts 357°
2026-05-07 13:38 52.38023 14.11599 1545 ft 151 kts 358°
2026-05-07 13:38 52.39064 14.11424 1549 ft 152 kts 357°
2026-05-07 13:38 52.40123 14.11248 1550 ft 152 kts 356°
2026-05-07 13:39 52.41161 14.11078 1546 ft 152 kts 357°
2026-05-07 13:39 52.42218 14.10902 1549 ft 153 kts 357°
2026-05-07 13:39 52.43274 14.10727 1548 ft 151 kts 357°
2026-05-07 13:39 52.44318 14.10560 1551 ft 150 kts 357°
2026-05-07 13:40 52.45346 14.10387 1539 ft 149 kts 357°
2026-05-07 13:40 52.46379 14.10222 1542 ft 150 kts 357°
2026-05-07 13:40 52.47429 14.10050 1546 ft 151 kts 356°
2026-05-07 13:40 52.48464 14.09867 1545 ft 151 kts 356°
2026-05-07 13:41 52.49506 14.09688 1537 ft 151 kts 356°
2026-05-07 13:41 52.50547 14.09502 1539 ft 150 kts 356°
2026-05-07 13:41 52.51537 14.08970 1543 ft 153 kts 333°
2026-05-07 13:41 52.52464 14.08091 1541 ft 154 kts 334°
2026-05-07 13:42 52.53399 14.07238 1543 ft 155 kts 334°
2026-05-07 13:42 52.54340 14.06368 1543 ft 155 kts 334°
2026-05-07 13:42 52.55276 14.05505 1540 ft 156 kts 334°
2026-05-07 13:42 52.56226 14.04641 1543 ft 155 kts 333°
2026-05-07 13:43 52.57165 14.03769 1541 ft 154 kts 334°
2026-05-07 13:43 52.58100 14.02911 1546 ft 156 kts 334°
2026-05-07 13:43 52.59050 14.02048 1542 ft 156 kts 334°
2026-05-07 13:43 52.59999 14.01179 1544 ft 155 kts 334°
2026-05-07 13:44 52.60943 14.00308 1554 ft 155 kts 335°
2026-05-07 13:44 52.61882 13.99454 1558 ft 156 kts 335°
2026-05-07 13:44 52.62827 13.98599 1552 ft 155 kts 334°
2026-05-07 13:44 52.63767 13.97722 1550 ft 154 kts 334°
2026-05-07 13:45 52.64699 13.96860 1545 ft 152 kts 334°
2026-05-07 13:45 52.65618 13.96014 1547 ft 151 kts 334°
2026-05-07 13:45 52.66523 13.95176 1550 ft 150 kts 334°
2026-05-07 13:45 52.67441 13.94335 1549 ft 150 kts 334°
2026-05-07 13:46 52.68357 13.93490 1546 ft 151 kts 334°
2026-05-07 13:46 52.69281 13.92648 1549 ft 151 kts 333°
2026-05-07 13:46 52.70192 13.91799 1547 ft 153 kts 333°
2026-05-07 13:46 52.71136 13.90925 1532 ft 156 kts 334°
2026-05-07 13:47 52.72073 13.90039 1475 ft 158 kts 333°
2026-05-07 13:47 52.73056 13.89128 1342 ft 163 kts 333°
2026-05-07 13:47 52.74047 13.88208 1214 ft 166 kts 334°
2026-05-07 13:47 52.75080 13.87343 1080 ft 165 kts 343°
2026-05-07 13:48 52.76157 13.86777 1004 ft 161 kts 339°
2026-05-07 13:48 52.77031 13.85618 1001 ft 160 kts 320°
2026-05-07 13:48 52.77833 13.84374 1001 ft 159 kts 321°
2026-05-07 13:48 52.78638 13.83161 996 ft 154 kts 320°
2026-05-07 13:49 52.79426 13.81970 997 ft 152 kts 320°
2026-05-07 13:49 52.80196 13.80802 999 ft 151 kts 319°
2026-05-07 13:49 52.80825 13.79621 1133 ft 124 kts 318°
2026-05-07 13:49 52.81378 13.78729 1211 ft 99 kts 327°
2026-05-07 13:50 52.81688 13.77884 1128 ft 85 kts 290°
2026-05-07 13:50 52.81831 13.76958 948 ft 79 kts 290°
2026-05-07 13:50 52.81930 13.76063 816 ft 84 kts 283°
2026-05-07 13:50 52.82067 13.75065 672 ft 93 kts 290°
2026-05-07 13:51 52.82196 13.74092 653 ft 78 kts 282°
2026-05-07 13:51 52.82290 13.73209 484 ft 78 kts 286°
2026-05-07 13:51 52.82395 13.72328 317 ft 77 kts 288°
2026-05-07 13:51 52.82486 13.71485 166 ft 73 kts 286°
2026-05-07 13:52 52.82574 13.70763 120 ft 49 kts 287°
2026-05-07 13:52 52.82605 13.70519 121 ft 0 kts 279°
2026-05-07 13:52 52.82598 13.70522 122 ft 9 kts 108°
2026-05-07 13:52 52.82567 13.70772 123 ft 23 kts 105°
2026-05-07 13:53 52.82565 13.70888 125 ft 8 kts 66°
2026-05-07 13:53 52.82628 13.70950 122 ft 14 kts 14°
2026-05-07 13:53 52.82708 13.70952 122 ft 12 kts 338°
2026-05-07 13:53 52.82734 13.70945 119 ft 0 kts